Meteo pe oră la Alife

Astăzi, 17 Ianuarie, Duminică

Timp Temperatura Precipitaţii Vânt Presiune Umiditate
00:00 +1°C° 0 mm 1 m/s 743 mmHg 72%
01:00 +1°C° 0 mm 1 m/s 743 mmHg 71%
02:00 +1°C° 0 mm 1 m/s 743 mmHg 71%
03:00 +2°C° 0 mm 1 m/s 742 mmHg 70%
04:00 +2°C° 0 mm 1 m/s 742 mmHg 70%
05:00 +2°C° 0 mm 1 m/s 742 mmHg 70%
06:00 +2°C° 0 mm 1 m/s 741 mmHg 69%
07:00 +3°C° 0 mm 1 m/s 741 mmHg 68%
08:00 +3°C° 0 mm 1 m/s 741 mmHg 69%
09:00 +3°C° 0 mm 2 m/s 741 mmHg 70%
10:00 +4°C° 0 mm 2 m/s 740 mmHg 71%
11:00 +4°C° 0.1 mm 2 m/s 740 mmHg 75%
12:00 +5°C° 0.1 mm 1 m/s 739 mmHg 78%
13:00 +6°C° 0 mm 1 m/s 738 mmHg 82%
14:00 +5°C° 0.6 mm 1 m/s 738 mmHg 86%
15:00 +4°C° 0.6 mm 2 m/s 738 mmHg 90%
16:00 +4°C° 0.6 mm 2 m/s 737 mmHg 93%
17:00 +4°C° 0.2 mm 2 m/s 737 mmHg 93%
18:00 +3°C° 0.2 mm 2 m/s 738 mmHg 92%
19:00 +3°C° 0.2 mm 2 m/s 738 mmHg 92%
20:00 +2°C° 0 mm 3 m/s 738 mmHg 90%
21:00 +1°C° 0 mm 3 m/s 739 mmHg 89%
22:00 +1°C° 0 mm 3 m/s 739 mmHg 87%
23:00 +1°C° 0.1 mm 3 m/s 739 mmHg 87%

Mâine, 18 Ianuarie, Luni

Timp Temperatura Precipitaţii Vânt Presiune Umiditate
00:00 +1°C° 0.1 mm 3 m/s 740 mmHg 87%
01:00 +1°C° 0.1 mm 2 m/s 740 mmHg 86%
02:00 +1°C° 0.1 mm 3 m/s 740 mmHg 87%
03:00 +1°C° 0.1 mm 3 m/s 741 mmHg 88%
04:00 +1°C° 0.1 mm 3 m/s 741 mmHg 88%
05:00 +1°C° 0.1 mm 3 m/s 741 mmHg 89%
06:00 +1°C° 0.1 mm 3 m/s 742 mmHg 89%
07:00 +2°C° 0.1 mm 2 m/s 742 mmHg 90%
08:00 +3°C° 0 mm 2 m/s 743 mmHg 84%
09:00 +4°C° 0 mm 2 m/s 744 mmHg 78%
10:00 +4°C° 0 mm 3 m/s 745 mmHg 73%
11:00 +5°C° 0 mm 2 m/s 745 mmHg 69%
12:00 +6°C° 0 mm 2 m/s 745 mmHg 66%
13:00 +6°C° 0 mm 2 m/s 745 mmHg 62%
14:00 +6°C° 0 mm 2 m/s 745 mmHg 65%
15:00 +7°C° 0 mm 1 m/s 746 mmHg 68%
16:00 +7°C° 0 mm 1 m/s 746 mmHg 71%
17:00 +5°C° 0 mm 1 m/s 746 mmHg 72%
18:00 +4°C° 0 mm 1 m/s 746 mmHg 73%
19:00 +3°C° 0 mm 1 m/s 747 mmHg 75%
20:00 +3°C° 0 mm 1 m/s 747 mmHg 74%
21:00 +3°C° 0 mm 1 m/s 747 mmHg 73%
22:00 +3°C° 0 mm 1 m/s 747 mmHg 72%
23:00 +3°C° 0 mm 1 m/s 748 mmHg 72%

Poimâine, 19 Ianuarie, Marţi

Timp Temperatura Precipitaţii Vânt Presiune Umiditate
00:00 +2°C° 0 mm 1 m/s 748 mmHg 72%
01:00 +2°C° 0 mm 1 m/s 748 mmHg 72%
02:00 +2°C° 0 mm 1 m/s 748 mmHg 73%
03:00 +2°C° 0 mm 1 m/s 747 mmHg 73%
04:00 +2°C° 0 mm 1 m/s 747 mmHg 73%
05:00 +2°C° 0 mm 1 m/s 747 mmHg 73%
06:00 +2°C° 0 mm 1 m/s 747 mmHg 74%
07:00 +2°C° 0 mm 1 m/s 748 mmHg 74%
08:00 +4°C° 0 mm 1 m/s 748 mmHg 72%
09:00 +5°C° 0 mm 1 m/s 748 mmHg 71%
10:00 +7°C° 0 mm 1 m/s 748 mmHg 69%
11:00 +8°C° 0 mm 1 m/s 748 mmHg 69%
12:00 +9°C° 0 mm 1 m/s 748 mmHg 69%
13:00 +9°C° 0 mm 2 m/s 748 mmHg 70%
14:00 +8°C° 0 mm 2 m/s 748 mmHg 73%
15:00 +9°C° 0 mm 1 m/s 747 mmHg 77%
16:00 +8°C° 0 mm 1 m/s 747 mmHg 81%
17:00 +8°C° 0 mm 1 m/s 747 mmHg 82%
18:00 +7°C° 0 mm 1 m/s 747 mmHg 84%
19:00 +7°C° 0 mm 1 m/s 747 mmHg 86%
20:00 +7°C° 0 mm 1 m/s 748 mmHg 86%
21:00 +7°C° 0 mm 1 m/s 748 mmHg 85%
22:00 +6°C° 0 mm 2 m/s 748 mmHg 85%
23:00 +7°C° 0.1 mm 1 m/s 748 mmHg 86%

20 Ianuarie, Miercuri

Timp Temperatura Precipitaţii Vânt Presiune Umiditate
00:00 +7°C° 0.1 mm 1 m/s 747 mmHg 87%
01:00 +7°C° 0.1 mm 1 m/s 747 mmHg 88%
02:00 +7°C° 0.1 mm 1 m/s 747 mmHg 89%
03:00 +7°C° 0.1 mm 1 m/s 747 mmHg 91%
04:00 +7°C° 0.1 mm 1 m/s 746 mmHg 92%
05:00 +7°C° 0 mm 1 m/s 746 mmHg 92%
06:00 +6°C° 0 mm 1 m/s 746 mmHg 93%
07:00 +6°C° 0 mm 1 m/s 746 mmHg 94%
08:00 +7°C° 0 mm 1 m/s 746 mmHg 92%
09:00 +8°C° 0 mm 1 m/s 746 mmHg 91%
10:00 +9°C° 0 mm 1 m/s 746 mmHg 89%
11:00 +9°C° 0.1 mm 1 m/s 746 mmHg 89%
12:00 +9°C° 0.1 mm 1 m/s 746 mmHg 89%
13:00 +9°C° 0.1 mm 1 m/s 745 mmHg 89%
14:00 +9°C° 0.2 mm 1 m/s 745 mmHg 91%
15:00 +9°C° 0.2 mm 1 m/s 745 mmHg 92%
16:00 +8°C° 0.2 mm 2 m/s 744 mmHg 93%
17:00 +8°C° 0.2 mm 2 m/s 744 mmHg 93%
18:00 +8°C° 0.2 mm 2 m/s 744 mmHg 94%
19:00 +8°C° 0.2 mm 2 m/s 744 mmHg 94%
20:00 +8°C° 0.1 mm 2 m/s 744 mmHg 94%
21:00 +8°C° 0.1 mm 2 m/s 744 mmHg 94%
22:00 +8°C° 0.1 mm 2 m/s 744 mmHg 94%
23:00 +8°C° 0 mm 2 m/s 743 mmHg 94%

21 Ianuarie, Joi

Timp Temperatura Precipitaţii Vânt Presiune Umiditate
00:00 +7°C° 0 mm 2 m/s 743 mmHg 94%
01:00 +7°C° 0 mm 2 m/s 743 mmHg 94%
02:00 +7°C° 0 mm 2 m/s 743 mmHg 94%
03:00 +8°C° 0 mm 1 m/s 742 mmHg 94%
04:00 +8°C° 0 mm 1 m/s 742 mmHg 93%
05:00 +9°C° 0 mm 1 m/s 742 mmHg 92%
06:00 +8°C° 0 mm 2 m/s 741 mmHg 92%
07:00 +8°C° 0 mm 2 m/s 741 mmHg 91%
08:00 +8°C° 0.1 mm 2 m/s 741 mmHg 89%
09:00 +8°C° 0.1 mm 2 m/s 741 mmHg 88%
10:00 +9°C° 0.1 mm 2 m/s 741 mmHg 86%
11:00 +9°C° 0.1 mm 2 m/s 741 mmHg 86%
12:00 +10°C° 0.1 mm 2 m/s 741 mmHg 86%
13:00 +10°C° 0.1 mm 2 m/s 740 mmHg 86%
14:00 +10°C° 0.3 mm 2 m/s 740 mmHg 86%
15:00 +10°C° 0.3 mm 3 m/s 740 mmHg 87%
16:00 +10°C° 0.3 mm 3 m/s 740 mmHg 88%
17:00 +10°C° 0.2 mm 2 m/s 740 mmHg 89%
18:00 +9°C° 0.2 mm 2 m/s 740 mmHg 91%
19:00 +10°C° 0.2 mm 1 m/s 740 mmHg 92%
20:00 +9°C° 0.2 mm 2 m/s 740 mmHg 92%
21:00 +9°C° 0.2 mm 2 m/s 740 mmHg 93%
22:00 +9°C° 0.2 mm 2 m/s 740 mmHg 94%
23:00 +9°C° 0.5 mm 2 m/s 740 mmHg 94%

22 Ianuarie, Vineri

Timp Temperatura Precipitaţii Vânt Presiune Umiditate
00:00 +10°C° 0.5 mm 3 m/s 740 mmHg 95%
01:00 +10°C° 0.5 mm 3 m/s 739 mmHg 96%
02:00 +10°C° 0.5 mm 4 m/s 739 mmHg 95%
03:00 +10°C° 0.5 mm 4 m/s 738 mmHg 95%
04:00 +11°C° 0.5 mm 4 m/s 738 mmHg 95%
05:00 +10°C° 0.6 mm 5 m/s 738 mmHg 95%
06:00 +10°C° 0.6 mm 5 m/s 738 mmHg 95%
07:00 +10°C° 0.6 mm 6 m/s 737 mmHg 95%
08:00 +10°C° 0.5 mm 6 m/s 737 mmHg 92%
09:00 +11°C° 0.5 mm 7 m/s 737 mmHg 89%
10:00 +11°C° 0.5 mm 8 m/s 737 mmHg 86%
11:00 +11°C° 0.5 mm 8 m/s 737 mmHg 87%
12:00 +11°C° 0.5 mm 8 m/s 736 mmHg 88%
13:00 +11°C° 0.5 mm 8 m/s 736 mmHg 89%
14:00 +11°C° 1.4 mm 8 m/s 735 mmHg 89%
15:00 +11°C° 1.4 mm 8 m/s 735 mmHg 90%
16:00 +10°C° 1.4 mm 8 m/s 734 mmHg 90%
17:00 +10°C° 2.4 mm 8 m/s 734 mmHg 91%
18:00 +10°C° 2.4 mm 7 m/s 733 mmHg 92%
19:00 +10°C° 2.4 mm 7 m/s 733 mmHg 92%
20:00 +10°C° 6.8 mm 7 m/s 732 mmHg 93%
21:00 +10°C° 6.8 mm 6 m/s 732 mmHg 94%
22:00 +10°C° 6.8 mm 6 m/s 731 mmHg 95%
23:00 +10°C° 5.5 mm 7 m/s 731 mmHg 95%
Arată mai mult

Formular de consimțământ

Meteoprog și furnizorii noștri de servicii pot stoca și accesa date personale, precum cookies, identificatori de dispozitiv sau alte tehnologii similare pe dispozitivul dumneavoastră și procesa astfel de date pentru a personaliza conținutul și reclamele, dar și pentru a oferi caracteristici de social media și pentru a analiza traficul.

  • Stocarea și/sau accesarea informațiilor pe dispozitivul dumneavoastră

    Cookies, identificatori de dispozitiv sau alte informații pot fi stocate sau accesate pe dispozitiv în scopurile indicate mai sus.

  • Reclame și conținut personalizat, evaluarea reclamelor și a conținutului, informații despre audiențe și dezvoltarea produselor

    Reclamele și conținutul pot fi personalizate pe baza unui profil. Pot fi adăugate date suplimentare pentru a personaliza mai bine reclamele și conținutul. Performanța reclamelor și conținutului poate fi măsurată. Pot fi obținute informații despre utilizatorii care au văzut reclamele și conținutul. Aceste date pot fi utilizate pentru a dezvolta sau îmbunătăți experiența utilizatorilor, sistemele și software-ul.

Dând clic pe ‘Sunt de acord’, permiteți utilizarea cookie-urilor menționate, a identificatorilor de dispozitiv, balizelor web sau altor tehnologii similare. Setările pot fi modificate din browser-ul dispozitivului dumneavoastră.

În anumite scopuri, interesele legitime pot prima asupra consimțământului. Puteți citi mai multe informații în acest sens în Politica privind Confidențialitatea Datelor și Cookie.